UAL1053 KBOS-KEWR

Flight info

Callsign UAL1053
Flight time 0h 43m
Altitude 16000
Route PATSS7 PATSS NELIE FLOSI4
Aircraft A319/M-SDE3FGHIRWY/LB1

Departure

Time 2026-05-07 22:13
Airport Boston Logan International Airport (KBOS)

Arrival

Time 2026-05-07 22:57
Airport Newark Liberty International Airport (KEWR)
Time Latitude Longitude Altitude Speed Heading
2026-05-07 21:04 42.36088 -71.01682 26 ft 0 kts 289°
2026-05-07 22:01 42.36082 -71.01657 29 ft 4 kts 289°
2026-05-07 22:01 42.36073 -71.01623 30 ft 4 kts 289°
2026-05-07 22:01 42.36066 -71.01595 31 ft 4 kts 294°
2026-05-07 22:01 42.36052 -71.01574 25 ft 4 kts 360°
2026-05-07 22:02 42.36028 -71.01581 32 ft 4 kts 19°
2026-05-07 22:02 42.36003 -71.01593 29 ft 4 kts 20°
2026-05-07 22:02 42.35983 -71.01603 30 ft 4 kts 20°
2026-05-07 22:02 42.35974 -71.01607 28 ft 0 kts 20°
2026-05-07 22:06 42.35976 -71.01606 28 ft 2 kts 20°
2026-05-07 22:06 42.36019 -71.01587 25 ft 11 kts 17°
2026-05-07 22:06 42.36121 -71.01539 28 ft 20 kts 20°
2026-05-07 22:06 42.36269 -71.01466 25 ft 25 kts 19°
2026-05-07 22:07 42.36347 -71.01336 29 ft 21 kts 119°
2026-05-07 22:07 42.36262 -71.01146 25 ft 26 kts 119°
2026-05-07 22:07 42.36182 -71.00910 27 ft 22 kts 113°
2026-05-07 22:07 42.36158 -71.00837 28 ft 0 kts 114°
2026-05-07 22:08 42.36154 -71.00825 27 ft 2 kts 113°
2026-05-07 22:08 42.36146 -71.00801 27 ft 6 kts 113°
2026-05-07 22:08 42.36113 -71.00690 26 ft 20 kts 109°
2026-05-07 22:08 42.36052 -71.00450 27 ft 34 kts 108°
2026-05-07 22:09 42.35968 -71.00128 27 ft 32 kts 116°
2026-05-07 22:09 42.35901 -71.00008 29 ft 0 kts 137°
2026-05-07 22:10 42.35890 -70.99994 25 ft 6 kts 136°
2026-05-07 22:11 42.35837 -70.99923 29 ft 16 kts 134°
2026-05-07 22:11 42.35737 -70.99786 25 ft 25 kts 136°
2026-05-07 22:11 42.35586 -70.99587 29 ft 35 kts 135°
2026-05-07 22:11 42.35489 -70.99392 28 ft 6 kts 75°
2026-05-07 22:12 42.35491 -70.99383 27 ft 0 kts 75°
2026-05-07 22:12 42.35493 -70.99372 25 ft 5 kts 75°
2026-05-07 22:12 42.35512 -70.99291 26 ft 14 kts 55°
2026-05-07 22:12 42.35625 -70.99393 26 ft 45 kts 315°
2026-05-07 22:13 42.36076 -70.99983 24 ft 132 kts 315°
2026-05-07 22:13 42.36775 -71.00928 628 ft 141 kts 314°
2026-05-07 22:13 42.37474 -71.01850 1482 ft 141 kts 314°
2026-05-07 22:13 42.38196 -71.02811 2248 ft 155 kts 308°
2026-05-07 22:14 42.38816 -71.04126 2865 ft 177 kts 299°
2026-05-07 22:14 42.39470 -71.05647 3339 ft 198 kts 299°
2026-05-07 22:14 42.40194 -71.07337 3794 ft 219 kts 299°
2026-05-07 22:14 42.40805 -71.09265 4561 ft 229 kts 278°
2026-05-07 22:15 42.40514 -71.11418 5260 ft 249 kts 245°
2026-05-07 22:15 42.39576 -71.13455 6133 ft 260 kts 238°
2026-05-07 22:15 42.38511 -71.15459 7109 ft 264 kts 236°
2026-05-07 22:15 42.37410 -71.17454 8151 ft 265 kts 237°
2026-05-07 22:16 42.36308 -71.19455 9201 ft 266 kts 238°
2026-05-07 22:16 42.35213 -71.21471 10178 ft 267 kts 239°
2026-05-07 22:16 42.34088 -71.23580 10631 ft 288 kts 239°
2026-05-07 22:16 42.32883 -71.25874 10881 ft 311 kts 238°
2026-05-07 22:17 42.31610 -71.28305 11418 ft 321 kts 238°
2026-05-07 22:17 42.30332 -71.30732 12227 ft 322 kts 238°
2026-05-07 22:17 42.29032 -71.33190 13114 ft 321 kts 238°
2026-05-07 22:17 42.27732 -71.35639 13979 ft 318 kts 237°
2026-05-07 22:18 42.26445 -71.38064 14776 ft 317 kts 237°
2026-05-07 22:18 42.23873 -71.42921 16246 ft 319 kts 237°
2026-05-07 22:18 42.22580 -71.45363 16960 ft 321 kts 237°
2026-05-07 22:19 42.21277 -71.47821 17687 ft 323 kts 236°
2026-05-07 22:19 42.19964 -71.50291 18350 ft 325 kts 236°
2026-05-07 22:19 42.18647 -71.52775 18979 ft 326 kts 236°
2026-05-07 22:19 42.17329 -71.55268 19636 ft 327 kts 236°
2026-05-07 22:20 42.16004 -71.57768 19952 ft 327 kts 236°
2026-05-07 22:20 42.14674 -71.60266 20023 ft 331 kts 236°
2026-05-07 22:20 42.13299 -71.62837 20096 ft 344 kts 236°
2026-05-07 22:20 42.11879 -71.65498 20222 ft 356 kts 236°
2026-05-07 22:21 42.10433 -71.68210 20347 ft 365 kts 236°
2026-05-07 22:21 42.09129 -71.71234 20473 ft 374 kts 246°
2026-05-07 22:21 42.08381 -71.74627 20609 ft 383 kts 256°
2026-05-07 22:21 42.07874 -71.78112 20850 ft 386 kts 256°
2026-05-07 22:22 42.07353 -71.81667 21154 ft 388 kts 256°
2026-05-07 22:22 42.06826 -71.85238 21478 ft 389 kts 256°
2026-05-07 22:22 42.06294 -71.88810 21755 ft 390 kts 256°
2026-05-07 22:22 42.05757 -71.92394 21851 ft 391 kts 256°
2026-05-07 22:23 42.05215 -71.95982 21835 ft 391 kts 256°
2026-05-07 22:23 42.04675 -71.99571 21828 ft 392 kts 256°
2026-05-07 22:23 42.04205 -72.02706 21839 ft 392 kts 256°
2026-05-07 22:23 42.03732 -72.05846 21836 ft 392 kts 256°
2026-05-07 22:24 42.03191 -72.09440 21836 ft 392 kts 256°
2026-05-07 22:24 42.02650 -72.13031 21841 ft 392 kts 256°
2026-05-07 22:24 42.02112 -72.16625 21814 ft 392 kts 256°
2026-05-07 22:24 42.01575 -72.20212 21841 ft 391 kts 256°
2026-05-07 22:25 42.01033 -72.23803 21842 ft 392 kts 256°
2026-05-07 22:25 42.00489 -72.27388 21877 ft 392 kts 256°
2026-05-07 22:25 41.99944 -72.30985 21870 ft 392 kts 256°
2026-05-07 22:25 41.99402 -72.34536 21860 ft 393 kts 256°
2026-05-07 22:26 41.98851 -72.38128 21855 ft 393 kts 256°
2026-05-07 22:26 41.98297 -72.41730 21857 ft 393 kts 256°
2026-05-07 22:26 41.97743 -72.45332 21857 ft 393 kts 255°
2026-05-07 22:26 41.97188 -72.48934 21857 ft 393 kts 255°
2026-05-07 22:27 41.96631 -72.52533 21858 ft 393 kts 255°
2026-05-07 22:27 41.96071 -72.56135 21858 ft 393 kts 255°
2026-05-07 22:27 41.95509 -72.59730 21858 ft 393 kts 255°
2026-05-07 22:27 41.94950 -72.63327 21883 ft 394 kts 256°
2026-05-07 22:28 41.94393 -72.66930 21874 ft 394 kts 256°
2026-05-07 22:28 41.93719 -72.70478 21871 ft 392 kts 251°
2026-05-07 22:28 41.92894 -72.73969 21868 ft 392 kts 251°
2026-05-07 22:28 41.92066 -72.77462 21865 ft 392 kts 251°
2026-05-07 22:29 41.91235 -72.80948 21820 ft 392 kts 251°
2026-05-07 22:29 41.90402 -72.84435 21824 ft 393 kts 251°
2026-05-07 22:29 41.89566 -72.87931 21826 ft 393 kts 251°
2026-05-07 22:29 41.88729 -72.91420 21833 ft 393 kts 251°
2026-05-07 22:30 41.87900 -72.94873 21840 ft 394 kts 250°
2026-05-07 22:30 41.87060 -72.98364 21879 ft 393 kts 251°
2026-05-07 22:30 41.86216 -73.01862 21876 ft 393 kts 251°
2026-05-07 22:30 41.85649 -73.04215 21876 ft 393 kts 251°
2026-05-07 22:31 41.84534 -73.08834 21837 ft 393 kts 251°
2026-05-07 22:31 41.83696 -73.12308 21384 ft 389 kts 251°
2026-05-07 22:31 41.82863 -73.15760 21126 ft 389 kts 251°
2026-05-07 22:31 41.82030 -73.19200 20870 ft 388 kts 251°
2026-05-07 22:32 41.81478 -73.21476 20702 ft 387 kts 251°
2026-05-07 22:32 41.80646 -73.24900 20450 ft 386 kts 251°
2026-05-07 22:32 41.79818 -73.28316 20200 ft 385 kts 251°
2026-05-07 22:32 41.78991 -73.31718 19943 ft 384 kts 251°
2026-05-07 22:33 41.78163 -73.35115 19700 ft 383 kts 251°
2026-05-07 22:33 41.77336 -73.38494 19447 ft 382 kts 251°
2026-05-07 22:33 41.76508 -73.41873 19204 ft 381 kts 251°
2026-05-07 22:33 41.75685 -73.45236 18964 ft 380 kts 251°
2026-05-07 22:34 41.74864 -73.48591 18726 ft 379 kts 251°
2026-05-07 22:34 41.74042 -73.51943 18479 ft 378 kts 251°
2026-05-07 22:34 41.73220 -73.55280 18245 ft 377 kts 250°
2026-05-07 22:34 41.72395 -73.58616 17988 ft 376 kts 251°
2026-05-07 22:35 41.71574 -73.61935 17717 ft 376 kts 251°
2026-05-07 22:35 41.70753 -73.65252 17459 ft 375 kts 251°
2026-05-07 22:35 41.69930 -73.68573 17190 ft 377 kts 251°
2026-05-07 22:35 41.69104 -73.71911 16925 ft 378 kts 251°
2026-05-07 22:36 41.68279 -73.75244 16663 ft 377 kts 251°
2026-05-07 22:36 41.67454 -73.78569 16402 ft 376 kts 251°
2026-05-07 22:36 41.66630 -73.81878 16144 ft 376 kts 251°
2026-05-07 22:36 41.65810 -73.85207 15915 ft 375 kts 252°
2026-05-07 22:37 41.65019 -73.88526 15847 ft 375 kts 252°
2026-05-07 22:37 41.64239 -73.91861 15862 ft 376 kts 252°
2026-05-07 22:37 41.63464 -73.95191 15862 ft 375 kts 252°
2026-05-07 22:37 41.62694 -73.98481 15863 ft 375 kts 252°
2026-05-07 22:38 41.61911 -74.01805 15868 ft 376 kts 252°
2026-05-07 22:38 41.61120 -74.05148 15859 ft 378 kts 252°
2026-05-07 22:38 41.60325 -74.08496 15860 ft 378 kts 252°
2026-05-07 22:38 41.59529 -74.11842 15859 ft 378 kts 252°
2026-05-07 22:39 41.58730 -74.15189 15863 ft 378 kts 252°
2026-05-07 22:39 41.57929 -74.18536 15979 ft 378 kts 252°
2026-05-07 22:39 41.57126 -74.21881 16015 ft 378 kts 252°
2026-05-07 22:39 41.56322 -74.25226 16012 ft 378 kts 252°
2026-05-07 22:40 41.55383 -74.28502 16014 ft 379 kts 244°
2026-05-07 22:40 41.53911 -74.31416 16011 ft 381 kts 231°
2026-05-07 22:40 41.51928 -74.33794 16005 ft 386 kts 219°
2026-05-07 22:40 41.49533 -74.35475 16010 ft 394 kts 206°
2026-05-07 22:41 41.46910 -74.36627 16031 ft 397 kts 203°
2026-05-07 22:41 41.44279 -74.37752 16020 ft 397 kts 204°
2026-05-07 22:41 41.41649 -74.38883 16021 ft 397 kts 204°
2026-05-07 22:41 41.39021 -74.40020 16022 ft 397 kts 204°
2026-05-07 22:42 41.36397 -74.41158 16022 ft 397 kts 204°
2026-05-07 22:42 41.33767 -74.42292 16001 ft 397 kts 204°
2026-05-07 22:42 41.31143 -74.43418 16021 ft 396 kts 204°
2026-05-07 22:42 41.28524 -74.44540 16024 ft 395 kts 204°
2026-05-07 22:43 41.25904 -74.45662 16024 ft 395 kts 204°
2026-05-07 22:43 41.23290 -74.46779 16024 ft 395 kts 204°
2026-05-07 22:43 41.20673 -74.47896 16025 ft 395 kts 204°
2026-05-07 22:43 41.18097 -74.48996 16025 ft 395 kts 204°
2026-05-07 22:44 41.15477 -74.50112 16022 ft 395 kts 204°
2026-05-07 22:44 41.12856 -74.51225 16015 ft 395 kts 204°
2026-05-07 22:44 41.10239 -74.52338 16024 ft 395 kts 204°
2026-05-07 22:44 41.07613 -74.53424 16024 ft 397 kts 201°
2026-05-07 22:45 41.04853 -74.54014 16024 ft 406 kts 191°
2026-05-07 22:45 41.02031 -74.54273 16022 ft 406 kts 191°
2026-05-07 22:45 40.99213 -74.54531 15755 ft 406 kts 191°
2026-05-07 22:45 40.96398 -74.54788 14801 ft 404 kts 191°
2026-05-07 22:46 40.93628 -74.55039 14113 ft 395 kts 191°
2026-05-07 22:46 40.90909 -74.55286 13325 ft 390 kts 191°
2026-05-07 22:46 40.88210 -74.55537 12436 ft 387 kts 190°
2026-05-07 22:46 40.85536 -74.55785 11507 ft 384 kts 189°
2026-05-07 22:47 40.82878 -74.55987 10875 ft 378 kts 184°
2026-05-07 22:47 40.80323 -74.55845 10746 ft 357 kts 182°
2026-05-07 22:47 40.77913 -74.55702 10605 ft 337 kts 182°
2026-05-07 22:47 40.75653 -74.55580 10482 ft 321 kts 182°
2026-05-07 22:48 40.73473 -74.55469 10359 ft 307 kts 183°
2026-05-07 22:48 40.71378 -74.55366 10169 ft 296 kts 184°
2026-05-07 22:48 40.69592 -74.55280 9961 ft 292 kts 184°
2026-05-07 22:48 40.67562 -74.55184 9830 ft 292 kts 183°
2026-05-07 22:49 40.65531 -74.55080 9706 ft 293 kts 181°
2026-05-07 22:49 40.63525 -74.54404 9166 ft 309 kts 154°
2026-05-07 22:49 40.61781 -74.52774 8872 ft 305 kts 146°
2026-05-07 22:49 40.60079 -74.51119 8494 ft 303 kts 146°
2026-05-07 22:50 40.58379 -74.49495 8142 ft 300 kts 146°
2026-05-07 22:50 40.56693 -74.47895 7787 ft 297 kts 146°
2026-05-07 22:50 40.55020 -74.46315 7450 ft 294 kts 146°
2026-05-07 22:50 40.53362 -74.44749 7113 ft 292 kts 146°
2026-05-07 22:51 40.51717 -74.43196 6779 ft 289 kts 145°
2026-05-07 22:51 40.50267 -74.41323 6038 ft 301 kts 123°
2026-05-07 22:51 40.49488 -74.38737 5201 ft 312 kts 98°
2026-05-07 22:51 40.49617 -74.35881 4350 ft 318 kts 73°
2026-05-07 22:52 40.50276 -74.33173 3964 ft 310 kts 70°
2026-05-07 22:52 40.50942 -74.30588 3767 ft 287 kts 64°
2026-05-07 22:52 40.51939 -74.28430 3504 ft 268 kts 48°
2026-05-07 22:52 40.53239 -74.26799 3206 ft 253 kts 33°
2026-05-07 22:53 40.54731 -74.25681 2886 ft 242 kts 23°
2026-05-07 22:53 40.56206 -74.24749 2573 ft 227 kts 22°
2026-05-07 22:53 40.57559 -74.23892 2286 ft 205 kts 22°
2026-05-07 22:53 40.58772 -74.23122 2037 ft 183 kts 23°
2026-05-07 22:54 40.59857 -74.22434 1810 ft 163 kts 22°
2026-05-07 22:54 40.60810 -74.21829 1600 ft 142 kts 20°
2026-05-07 22:54 40.61668 -74.21286 1413 ft 133 kts 21°
2026-05-07 22:54 40.62493 -74.20765 1238 ft 131 kts 21°
2026-05-07 22:55 40.63308 -74.20249 1072 ft 128 kts 20°
2026-05-07 22:55 40.64112 -74.19739 900 ft 129 kts 22°
2026-05-07 22:55 40.64907 -74.19234 737 ft 126 kts 24°
2026-05-07 22:55 40.65706 -74.18728 572 ft 128 kts 21°
2026-05-07 22:56 40.66523 -74.18210 408 ft 130 kts 20°
2026-05-07 22:56 40.67376 -74.17669 239 ft 139 kts 18°
2026-05-07 22:56 40.68239 -74.17118 41 ft 139 kts 20°
2026-05-07 22:56 40.68925 -74.16684 22 ft 62 kts 25°
2026-05-07 22:57 40.69288 -74.16597 23 ft 43 kts 355°
2026-05-07 22:57 40.69461 -74.16785 23 ft 27 kts 295°
2026-05-07 22:57 40.69498 -74.16892 22 ft 12 kts 283°
2026-05-07 22:57 40.69529 -74.17018 22 ft 13 kts 266°
2026-05-07 22:58 40.69516 -74.17132 22 ft 13 kts 262°
2026-05-07 22:58 40.69507 -74.17196 22 ft 3 kts 250°
2026-05-07 22:58 40.69484 -74.17246 22 ft 10 kts 235°
2026-05-07 22:58 40.69472 -74.17270 22 ft 0 kts 236°